KUIPER-00570

导读

KUIPER-00570(NORAD编号69271)是亚马逊柯伊伯(Project Kuiper)低轨互联网星座的组成卫星,大概率隶属于2025年9月25日ULA使用Atlas V 551火箭执行的KA-03发射任务,该批次卫星初始被送入450公里高度轨道,后续由雷德蒙德任务控制中心抬升至630公里的星座工作轨道,作为全球卫星互联网组网节点,旨在为全球各地提供高速低延迟的宽带网络接入服务。截至2026年6月,该卫星为柯伊伯星座在役组网卫星之一,目前公开渠道暂未披露其专属的特殊故障或特殊任务信息。

基本信息
目录编号:
69271
目录名称:
KUIPER-00570
国际标识:
2026-118E
轨道中心:
EARTH
卫星名称:
KUIPER-00570
卫星全名:
KUIPER-00570
卫星状态:
在轨 (已飞行59 天)
发射日期:
2026-05-29 UTC
国别 :
美国 (US)
星等 :
--
轨道信息
数据来源 国际轨道数据
星历时间: 2026-07-27T22:00:02+0800
8小时前
查看轨道信息
半长轴: 7001.021km
偏心率: 0.0003595
轨道倾角: 51.897°
近地点辐角 46.448°
升交点赤经 224.654°
平近点角 197.736°
近地点: 620.367km
远地点: 625.401km
周期: 97.163分钟
每日圈数: 14.820429
详细信息
使用方式:
暂无
2D轨道图
3D轨道图
轨道高度分析图
轨道倾角分析图
轨道综合分析图
查看轨道综合分析图